TimeCST,TemperatureF,Dew PointF,Humidity,Sea Level PressureIn,VisibilityMPH,Wind Direction,Wind SpeedMPH,Gust SpeedMPH,PrecipitationIn,Events,Conditions,WindDirDegrees,DateUTC
12:53 AM,66.0,57.9,75,29.36,10.0,South,23.0,33.4,N/A,,Scattered Clouds,190,2013-11-17 06:53:00
1:53 AM,66.9,57.9,73,29.33,10.0,South,23.0,35.7,N/A,,Partly Cloudy,190,2013-11-17 07:53:00
2:53 AM,66.9,55.9,68,29.32,10.0,SSW,24.2,31.1,N/A,,Partly Cloudy,200,2013-11-17 08:53:00
3:53 AM,66.0,55.9,70,29.31,10.0,SSW,21.9,38.0,N/A,,Scattered Clouds,210,2013-11-17 09:53:00
4:53 AM,64.9,55.9,73,29.30,10.0,SSW,24.2,31.1,N/A,,Overcast,210,2013-11-17 10:53:00
5:53 AM,64.0,55.9,75,29.31,10.0,SSW,19.6,28.8,N/A,,Clear,210,2013-11-17 11:53:00
6:53 AM,64.0,51.1,63,29.33,10.0,SW,25.3,31.1,N/A,,Partly Cloudy,230,2013-11-17 12:53:00
7:53 AM,59.0,34.0,39,29.39,10.0,West,19.6,33.4,N/A,,Scattered Clouds,270,2013-11-17 13:53:00
8:53 AM,55.0,34.0,45,29.50,10.0,NW,16.1,29.9,N/A,,Mostly Cloudy,320,2013-11-17 14:53:00
9:53 AM,57.0,35.1,44,29.56,10.0,WNW,12.7,21.9,N/A,,Scattered Clouds,300,2013-11-17 15:53:00
10:53 AM,61.0,34.0,36,29.59,10.0,West,12.7,-,N/A,,Partly Cloudy,280,2013-11-17 16:53:00
11:53 AM,63.0,34.0,34,29.59,10.0,WSW,11.5,23.0,N/A,,Clear,250,2013-11-17 17:53:00
12:53 PM,64.9,24.1,21,29.58,10.0,West,27.6,40.3,N/A,,Partly Cloudy,260,2013-11-17 18:53:00
1:53 PM,64.0,19.0,18,29.62,10.0,West,27.6,39.1,N/A,,Scattered Clouds,280,2013-11-17 19:53:00
2:53 PM,63.0,18.0,18,29.67,10.0,West,23.0,40.3,N/A,,Scattered Clouds,280,2013-11-17 20:53:00
3:53 PM,61.0,19.9,21,29.73,10.0,WNW,25.3,32.2,N/A,,Partly Cloudy,290,2013-11-17 21:53:00
4:53 PM,57.9,23.0,26,29.79,10.0,West,13.8,24.2,N/A,,Partly Cloudy,280,2013-11-17 22:53:00
5:53 PM,55.0,28.0,35,29.85,10.0,WNW,12.7,-,N/A,,Partly Cloudy,290,2013-11-17 23:53:00
6:53 PM,54.0,28.9,38,29.89,10.0,WNW,10.4,-,N/A,,Partly Cloudy,290,2013-11-18 00:53:00
7:53 PM,51.1,30.0,44,29.93,10.0,WNW,8.1,-,N/A,,Clear,290,2013-11-18 01:53:00
8:53 PM,48.9,30.9,50,29.98,10.0,West,9.2,-,N/A,,Clear,280,2013-11-18 02:53:00
9:53 PM,46.9,32.0,56,30.02,10.0,WNW,8.1,-,N/A,,Clear,290,2013-11-18 03:53:00
10:53 PM,45.0,32.0,60,30.06,10.0,WNW,6.9,-,N/A,,Clear,290,2013-11-18 04:53:00
11:53 PM,44.1,33.1,65,30.08,10.0,NW,6.9,-,N/A,,Clear,310,2013-11-18 05:53:00